Regional Weather Roundup
Issued by NWS

Home | Current Version | Previous Version | Text Only | Print | Product List | Glossary Off
Versions: 1 2 3 4 5 6 7 8 9 10 11 12 13 14 15 16 17 18 19 20 21 22 23 24 25 26 27 28 29 30 31 32 33 34 35 36 37 38 39 40 41 42 43 44 45 46 47 48 49 50

000
ASUS44 KMEG 270400
RWRTN
TENNESSEE HOURLY STATE WEATHER ROUNDUP
NATIONAL WEATHER SERVICE MEMPHIS TN
1100 PM CDT SUN MAR 26 2017

TNZ002-004-019-021-049-052-054-088>092-270500-
WEST TENNESSEE

CITY           SKY/WX    TMP DP  RH WIND       PRES   REMARKS
MEMPHIS INTL   MOCLDY    64  53  67 SE5       29.92F
NWS MEMPHIS      N/A     61 N/A N/A MISG        N/A
JACKSON        PTCLDY    55  52  89 CALM      29.96F
DYERSBURG      MOCLDY    60  54  80 E5        29.95F
PARIS          CLEAR     50  48  93 E3        29.97F
$$

TNZ008-025-027-028-033-062-065-066-270500-
NORTH MIDDLE TENNESSEE

CITY           SKY/WX    TMP DP  RH WIND       PRES   REMARKS
NASHVILLE      CLOUDY    61  54  77 S6        30.00F
CLARKSVILLE    CLOUDY    57  50  77 SE3       29.99F
SMYRNA         CLOUDY    60  54  80 CALM      30.02S
CROSSVILLE     CLOUDY    56  49  77 CALM      30.07F
$$

TNZ061-075-076-078-094-096-097-270500-
SOUTH MIDDLE TENNESSEE

CITY           SKY/WX    TMP DP  RH WIND       PRES   REMARKS
TULLAHOMA      CLEAR     54  52  94 CALM      30.04F
WINCHESTER     CLEAR     55  52  88 CALM      30.04S
COLUMBIA       MOCLDY    61  61 100 CALM      29.98F
SHELBYVILLE    CLEAR     63  55  77 SE3       30.03S
$$

TNZ017-018-042-046-047-270500-
NORTHEAST TENNESSEE

CITY           SKY/WX    TMP DP  RH WIND       PRES   REMARKS
TRI CITIES     MOCLDY    58  52  80 CALM      30.07F
$$

TNZ012-013-036-069-073-074-270500-
CENTRAL EAST TENNESSEE

CITY           SKY/WX    TMP DP  RH WIND       PRES   REMARKS
KNOXVILLE      PTCLDY    61  53  75 SW8       30.04F
OAK RIDGE      CLOUDY    62  52  69 SW3       30.05F
GATLINBURG     PTCLDY    59  52  77 CALM      30.05S
$$

TNZ083-085-099-270500-
SOUTHEAST TENNESSEE

CITY           SKY/WX    TMP DP  RH WIND       PRES   REMARKS
CHATTANOOGA    PTCLDY    61  54  77 CALM      30.05F
$$

SKY/WX REPORTED AS FAIR MEANS FEW OR NO CLOUDS BELOW
12 THOUSAND FEET.





USA.gov is the U.S. government's official web portal to all federal, state and local government web resources and services.